Location: Newark
(54.4333°N, 18.5500°E)
Time: 05:20:26
(UTC+00:00)

Envisat - Visible Passes

Search period start: 08 December 2019 00:00
Search period end: 18 December 2019 00:00
Orbit: 764 x 766 km, 98.1° (Epoch: 07 December)

Date Brightness Start Highest point End Pass type
(mag) Time Alt. Az. Time Alt. Az. Time Alt. Az.
08 Dec 6.0 04:14:50 10° NE 04:17:53 16° E 04:20:55 10° ESE visible
08 Dec 3.1 05:52:35 10° NNE 05:57:43 84° ESE 06:02:48 10° SSW visible
08 Dec 3.4 15:35:30 10° SE 15:40:13 40° ENE 15:44:57 10° N visible
08 Dec 4.3 17:14:31 10° SSW 17:19:17 39° W 17:24:05 10° NNW visible
09 Dec 4.3 05:15:55 10° NNE 05:20:49 45° E 05:25:41 10° S visible
09 Dec 4.0 14:59:47 10° ESE 15:03:45 24° NE 15:07:45 10° N visible
09 Dec 3.2 16:37:16 10° S 16:42:20 75° WSW 16:47:28 10° NNW visible
09 Dec 6.0 18:19:43 10° WSW 18:22:17 14° W 18:24:52 10° NW visible
10 Dec 5.4 04:39:35 10° NE 04:43:43 24° E 04:47:50 10° SE visible
10 Dec 3.0 16:00:36 10° SSE 16:05:35 61° ENE 16:10:37 10° N visible
10 Dec 5.1 17:40:48 10° SSW 17:45:00 26° W 17:49:15 10° NW visible
11 Dec 6.1 04:04:07 10° NE 04:06:25 13° E 04:08:43 10° ESE visible
11 Dec 3.4 05:41:19 10° NNE 05:46:26 70° ESE 05:51:29 10° S visible
11 Dec 3.6 15:24:28 10° SE 15:29:01 34° ENE 15:33:34 10° N visible
11 Dec 4.0 17:03:02 10° S 17:07:56 48° W 17:12:52 10° NNW visible
12 Dec 4.6 05:04:43 10° NNE 05:09:28 37° E 05:14:10 10° SSE visible
12 Dec 3.0 16:25:57 10° SSE 16:31:03 88° WSW 16:36:11 10° NNW visible
12 Dec 5.7 18:07:37 10° SW 18:10:50 17° W 18:14:04 10° NW visible
13 Dec 5.7 04:28:33 10° NE 04:32:19 20° E 04:36:03 10° SE visible
13 Dec 3.0 06:06:49 10° NNE 06:11:56 77° WNW 06:17:00 10° SSW visible
13 Dec 3.1 15:49:27 10° SE 15:54:21 51° ENE 15:59:17 10° N visible
13 Dec 4.8 17:29:08 10° SSW 17:33:37 31° W 17:38:07 10° NNW visible
14 Dec 6.3 03:54:01 10° ENE 03:54:57 10° E 03:55:52 10° E visible
14 Dec 3.7 05:30:03 10° NNE 05:35:06 58° E 05:40:07 10° S visible
14 Dec 3.8 15:13:30 10° ESE 15:17:50 29° ENE 15:22:11 10° N visible
14 Dec 3.6 16:51:36 10° S 16:56:36 57° W 17:01:38 10° NNW visible
14 Dec 6.2 18:36:02 10° W 18:36:46 10° W 18:37:30 10° WNW visible
15 Dec 5.0 04:53:34 10° NNE 04:58:05 31° E 05:02:35 10° SSE visible
15 Dec 2.9 16:14:42 10° SSE 16:19:46 78° ENE 16:24:53 10° NNW visible
15 Dec 5.5 17:55:42 10° SW 17:59:24 20° W 18:03:08 10° NW visible
16 Dec 5.9 04:17:36 10° NE 04:20:52 17° E 04:24:08 10° SE visible
16 Dec 3.1 05:55:31 10° NNE 06:00:39 89° ESE 06:05:45 10° SSW visible
16 Dec 3.3 15:38:21 10° SE 15:43:07 43° ENE 15:47:55 10° N visible
16 Dec 4.5 17:17:33 10° SSW 17:22:15 37° W 17:26:58 10° NNW visible
17 Dec 4.1 05:18:49 10° NNE 05:23:46 48° E 05:28:41 10° S visible
17 Dec 4.0 15:02:34 10° ESE 15:06:39 25° ENE 15:10:45 10° N visible
17 Dec 3.3 16:40:13 10° S 16:45:17 69° WSW 16:50:23 10° NNW visible
17 Dec 6.0 18:23:04 10° WSW 18:25:18 13° W 18:27:32 10° NW visible
